Starlink 11675

operational
NORAD ID: 64235 Int'l Des: 2025-119 Owner: SPXS Country: US Constellation: starlink
LEOCIRCULAR

Über Starlink 11675

Beschreibung wird geladen...

Live-Position

3D-Globus wird geladen...

Nächste Überflüge

Höhenverlauf

Altitude vs Time

uPlot chart will show altitude changes over time

Zweizeiliger Elementsatz

1 64235U 25119C 25308.11052448 .00285652 00000-0 21460-2 0 9994
2 64235 42.9997 246.1294 0001168 251.4670 108.6070 15.70928131 25490
Epoch: 4. Nov. 2025 • Age: 20 hours

Aktueller Status

Höhe 354.3 km
Geschwindigkeit 7.70 km/s
Subsatellitenpunkt 17.85°N, 9.41°E
Startdatum 3. Juni 2025
Alter 0.4 years
Typ internet

Technische Details

Klassifizierung Payload
Masse 960.00 kg
Trockenmasse 910.00 kg
Gesamtmasse 960.00 kg
Länge 0.30 m
Durchmesser 4.10 m
Spannweite 29.00 m
Form Box + pan
Hersteller SPXS
Bus-Typ Starlink V2MD
Phasenstatus In Orbit
Besitzer/Staat SPXS/US

Große Konstellationen

Loading constellations...